Location: Joplin
(37.0842°N, 94.5131°W)
Time: 23:21:59
(UTC-06:00)

Envisat - Pass Details

Date: 23 October 2018
Orbit: 764 x 766 km, 98.2° (Epoch: 15 November)

Event Time Altitude Azimuth Distance (km) Brightness Sun altitude
Rises 21:21:31 0° 202° (SSW) 3,217 6.3 -34.6°
Reaches altitude 10° 21:24:22 10° 219° (SW) 2,296 5.7 -35.2°
Maximum altitude 21:28:05 20° 266° (W) 1,695 5.3 -35.9°
Drops below altitude 10° 21:31:49 10° 314° (NW) 2,307 6.1 -36.6°
Sets 21:34:43 0° 331° (NNW) 3,238 6.8 -37.2°
